Location: Allens Landing
(37.8284°N, 89.7284°W)
Time: 01:20:50
(UTC+00:00)

Vanguard 2 Rocket - Visible Passes

Search period start: 05 November 2024 00:00
Search period end: 15 November 2024 00:00
Orbit: 553 x 3297 km, 32.9° (Epoch: 04 November)

Date Brightness Start Highest point End Pass type
(mag) Time Alt. Az. Time Alt. Az. Time Alt. Az.
07 Nov 11.1 11:09:56 10° SSE 11:17:52 15° SE 11:26:51 10° E visible
09 Nov 10.8 11:12:11 10° S 11:22:27 22° SE 11:35:02 10° E visible
10 Nov 10.9 10:14:07 10° SE 10:18:28 12° SE 10:23:15 10° ESE visible
11 Nov 10.5 11:15:47 10° S 11:27:01 29° SE 11:41:50 10° E visible
12 Nov 10.6 10:15:10 10° SSE 10:22:59 18° SE 10:32:45 10° E visible
13 Nov 10.3 11:20:06 10° SSW 11:31:40 37° SE 11:47:55 10° E visible
14 Nov 10.3 10:18:31 10° S 10:27:32 24° SE 10:39:52 10° E visible
